989  
ASUS44 KOHX 161610  
RWROHX  
MIDDLE TENNESSEE HOURLY WEATHER ROUNDUP  
NATIONAL WEATHER SERVICE NASHVILLE TN  
1100 AM CDT MON JUL 16 2018  
 
NOTE: "FAIR" INDICATES FEW OR NO CLOUDS BELOW 12,000 FEET WITH  
NO SIGNIFICANT WEATHER AND/OR S TO VISIBILITY
.  
 
* THESE REPORTS ARE NOT UNDER NWS QUALITY CONTROL AND MAY NOT  
REPORT WEATHER SUCH AS PRECIPITATION AND FOG.
 
 
 
TNZ005>011-023>034-057-059-062>066-078-080-161700   
..NORTHERN MIDDLE TENNESSEE
 
 
 
CITY SKY/WX TMP DP RH WIND PRES REMARKS
 
CLARKSVILLE PTSUNNY 83 72 69 CALM 30.02S  
CROSSVILLE PTSUNNY 78 70 76 W7 30.12S  
DICKSON MOSUNNY 82 73 74 NW5 30.05R  
LEBANON PTSUNNY 81 73 78 S9 30.03S  
LIVINGSTON CLOUDY 79 72 78 W7 30.07S  
NASHVILLE PTSUNNY 82 73 74 S3 30.05S  
PORTLAND PTSUNNY 82 73 74 SW7 30.04S  
ROCKWOOD PTSUNNY 79 73 83 VRB5 30.10S  
SMYRNA CLOUDY 79 74 84 VRB7 30.07R  
SPARTA CLOUDY 79 73 83 VRB7 30.06F  
SPRINGFIELD PTSUNNY 81 75 83 SW6 30.03S  
WEST NASHVILLE CLOUDY 82 73 74 CALM 30.03R  

 
TNZ056-058-060-061-075>077-079-093>097-161700   
..SOUTHERN MIDDLE TENNESSEE
 
 
 
CITY SKY/WX TMP DP RH WIND PRES REMARKS
 
COLUMBIA PTSUNNY 77 77 100 SW5 30.05S  
FAYETTEVILLE SUNNY 75 73 94 W5 30.08F  
LEWISBURG CLOUDY 79 73 83 SW8 30.06S  
MCMINNVILLE CLOUDY 79 73 83 W9 30.08R  
MURFREESBORO PTSUNNY 77 73 88 S9 30.05S  
PULASKI PTSUNNY 77 75 94 VRB3 30.07F  
SHELBYVILLE MOSUNNY 75 75 100 S6 30.07F  
TULLAHOMA CLOUDY 77 N/A N/A W8 30.08S  
WINCHESTER CLOUDY 79 72 78 W8G16 30.09R  

 
 
   
..KEY TO REMARKS
 
 
VSB - VISIBILITY IN MILES  
WCI - WIND CHILL INDEX  
HX - HEAT INDEX  
 
 
 
CLICK HERE TO GO TO PREVIOUS BULLETINS.

The Nexlab TN Page Main Text Page